sampling_time,wmo_synop_id,msc_id,stn_nam,stn_elev,lat,long,stn_typ,date_tm,rpt_typ,result_time,crnt_buoy_lat,crnt_buoy_lat_qa_summary,crnt_buoy_long,crnt_buoy_long_qa_summary,avg_air_temp_pst10mts,avg_air_temp_pst10mts_qa_summary,avg_sea_sfc_temp_pst10mts,avg_sea_sfc_temp_pst10mts_qa_summary,avg_batry_volt_pst10mts,avg_batry_volt_pst10mts_qa_summary,avg_solr_panl_crnt_pst10mts,avg_solr_panl_crnt_pst10mts_qa_summary,avg_wtr_lvl_snsr_volt_pst10mts,avg_wtr_lvl_snsr_volt_pst10mts_qa_summary,avg_wave_hgt_pst20mts,avg_wave_hgt_pst20mts_qa_summary,pk_wave_hgt_pst20mts,pk_wave_hgt_pst20mts_qa_summary,sig_wave_pd_pst20mts,sig_wave_pd_pst20mts_qa_summary,sig_wave_hgt_pst20mts,sig_wave_hgt_pst20mts_qa_summary,avg_max_wave_hgt_pst20mts,avg_max_wave_hgt_pst20mts_qa_summary,avg_max_wave_pd_pst20mts,avg_max_wave_pd_pst20mts_qa_summary,avg_wave_pd_pst20mts,avg_wave_pd_pst20mts_qa_summary,pk_wave_pd_pst20mts,pk_wave_pd_pst20mts_qa_summary,avg_stn_pres_pst10mts,avg_stn_pres_pst10mts_qa_summary,avg_wnd_spd_pst10mts,avg_wnd_spd_pst10mts_qa_summary,avg_wnd_dir_pst10mts,avg_wnd_dir_pst10mts_qa_summary,max_avg_wnd_spd_pst10mts,max_avg_wnd_spd_pst10mts_qa_summary,wnd_snsr_vert_disp,wnd_snsr_vert_disp_qa_summary,pres_tend_char_pst3hrs,pres_tend_char_pst3hrs_data_flag,pres_tend_amt_pst3hrs,pres_tend_amt_pst3hrs_data_flag,avg_mslp_pst10mts,avg_mslp_pst10mts_data_flag,avg_stn_pres_pst10mts_1,avg_stn_pres_pst10mts_1_qa_summary,avg_stn_pres_pst10mts_2,avg_stn_pres_pst10mts_2_qa_summary,avg_wnd_spd_pst10mts_1,avg_wnd_spd_pst10mts_1_qa_summary,avg_wnd_spd_pst10mts_2,avg_wnd_spd_pst10mts_2_qa_summary,avg_wnd_dir_pst10mts_1,avg_wnd_dir_pst10mts_1_qa_summary,avg_wnd_dir_pst10mts_2,avg_wnd_dir_pst10mts_2_qa_summary,max_avg_wnd_spd_pst10mts_1,max_avg_wnd_spd_pst10mts_1_qa_summary,max_avg_wnd_spd_pst10mts_2,max_avg_wnd_spd_pst10mts_2_qa_summary
2021-10-16T00:00:00Z,44489,9302001,WEST CHEDABUCTO BAY,0,45.48687,-61.14100000000001,18,2021-10-16T00:00:00.000Z,108,2021-10-16T00:02:55.576Z,45.48693,100,-61.141130000000004,100,12.4,100,15.1,100,12.6,100,0.0,100,3.6,100,0.1,100,0.4,100,2.2,100,0.2,100,0.3,100,2.3,100,2.2,100,2.3,100,1012.6,100,22.7,100,329,100,28.1,100,5,100,3,1,0.3,1,1012.6,1,1012.6,100,1012.6,100,22.7,100,22.3,100,329,100,332,100,28.1,100,27.0,100
2021-10-16T00:10:00Z,44489,9302001,WEST CHEDABUCTO BAY,0,45.48687,-61.14100000000001,18,2021-10-16T00:10:00.000Z,110,2021-10-16T00:13:05.137Z,,-1,,-1,13.0,100,15.8,100,12.6,100,0.0,100,3.6,100,,-1,,-1,,-1,,-1,,-1,,-1,,-1,,-1,1012.5,100,21.2,100,334,100,25.9,100,5,100,3,1,0.2,1,1012.5,1,1012.5,100,1012.5,100,21.2,100,20.9,100,334,100,338,100,25.9,100,25.9,100
2021-10-16T00:20:00Z,44489,9302001,WEST CHEDABUCTO BAY,0,45.48687,-61.14100000000001,18,2021-10-16T00:20:00.000Z,110,2021-10-16T00:23:05.280Z,45.48692,100,-61.141130000000004,100,12.2,100,15.1,100,12.6,100,0.0,100,3.6,100,,-1,,-1,,-1,,-1,,-1,,-1,,-1,,-1,1012.5,100,21.2,100,338,100,25.6,100,5,100,3,1,0.3,1,1012.5,1,1012.5,100,1012.5,100,21.2,100,20.9,100,338,100,342,100,25.6,100,25.9,100
2021-10-16T00:30:00Z,44489,9302001,WEST CHEDABUCTO BAY,0,45.48687,-61.14100000000001,18,2021-10-16T00:30:00.000Z,110,2021-10-16T00:33:07.770Z,45.48692,100,-61.14117,100,12.1,100,15.1,100,12.6,100,0.0,100,3.6,100,,-1,,-1,,-1,,-1,,-1,,-1,,-1,,-1,1012.6,100,18.4,100,336,100,24.8,100,5,100,3,1,0.4,1,1012.6,1,1012.6,100,1012.6,100,18.4,100,18.0,100,336,100,340,100,24.8,100,24.5,100
2021-10-16T00:40:00Z,44489,9302001,WEST CHEDABUCTO BAY,0,45.48687,-61.14100000000001,18,2021-10-16T00:40:00.000Z,110,2021-10-16T00:43:07.934Z,45.48693,100,-61.141169999999995,100,12.1,100,15.1,100,12.6,100,0.0,100,3.6,100,,-1,,-1,,-1,,-1,,-1,,-1,,-1,,-1,1012.6,100,18.4,100,333,100,24.8,100,5,100,3,1,0.3,1,1012.6,1,1012.6,100,1012.6,100,18.4,100,18.0,100,333,100,337,100,24.8,100,24.5,100
2021-10-16T00:50:00Z,44489,9302001,WEST CHEDABUCTO BAY,0,45.48687,-61.14100000000001,18,2021-10-16T00:50:00.000Z,110,2021-10-16T00:53:08.798Z,45.48692,100,-61.14115,100,12.1,100,15.1,100,12.6,100,0.0,100,3.6,100,,-1,,-1,,-1,,-1,,-1,,-1,,-1,,-1,1012.4,100,21.6,100,338,100,27.0,100,5,100,2,1,0.3,1,1012.4,1,1012.4,100,1012.4,100,21.6,100,21.2,100,338,100,342,100,27.0,100,25.9,100
2021-10-16T01:00:00Z,44489,9302001,WEST CHEDABUCTO BAY,0,45.48687,-61.14100000000001,18,2021-10-16T01:00:00.000Z,108,2021-10-16T01:03:13.346Z,45.48692,100,-61.14115,100,12.0,100,15.1,100,12.6,100,0.0,100,3.6,100,0.2,100,0.5,100,2.3,100,0.3,100,0.3,100,2.3,100,2.3,100,2.4,100,1012.4,100,22.3,100,342,100,27.7,100,5,100,0,1,0.0,1,1012.4,1,1012.4,100,1012.4,100,22.3,100,21.6,100,342,100,346,100,27.7,100,27.0,100
2021-10-16T01:10:00Z,44489,9302001,WEST CHEDABUCTO BAY,0,45.48687,-61.14100000000001,18,2021-10-16T01:10:00.000Z,110,2021-10-16T01:16:14.071Z,45.48692,100,-61.14115,100,11.9,100,15.1,100,12.6,100,0.0,100,3.6,100,,-1,,-1,,-1,,-1,,-1,,-1,,-1,,-1,1012.4,100,22.7,100,347,100,27.0,100,5,100,0,1,0.1,1,1012.4,1,1012.4,100,1012.4,100,22.7,100,22.3,100,347,100,351,100,27.0,100,26.6,100
2021-10-16T01:20:00Z,44489,9302001,WEST CHEDABUCTO BAY,0,45.48687,-61.14100000000001,18,2021-10-16T01:20:00.000Z,110,2021-10-16T01:23:11.115Z,45.4869,100,-61.14115,100,11.9,100,15.1,100,12.6,100,0.0,100,3.6,100,,-1,,-1,,-1,,-1,,-1,,-1,,-1,,-1,1012.5,100,23.4,100,339,100,27.7,100,5,100,0,1,0.2,1,1012.5,1,1012.5,100,1012.5,100,23.4,100,22.7,100,339,100,343,100,27.7,100,27.0,100
2021-10-16T01:30:00Z,44489,9302001,WEST CHEDABUCTO BAY,0,45.48687,-61.14100000000001,18,2021-10-16T01:30:00.000Z,110,2021-10-16T01:33:22.199Z,45.48692,100,-61.14115,100,11.9,100,15.1,100,12.6,100,0.0,100,3.6,100,,-1,,-1,,-1,,-1,,-1,,-1,,-1,,-1,1012.4,100,24.1,100,337,100,28.1,100,5,100,0,1,0.2,1,1012.4,1,1012.4,100,1012.4,100,24.1,100,23.4,100,337,100,341,100,28.1,100,27.0,100
2021-10-16T01:40:00Z,44489,9302001,WEST CHEDABUCTO BAY,0,45.48687,-61.14100000000001,18,2021-10-16T01:40:00.000Z,110,2021-10-16T01:43:24.605Z,45.4869,100,-61.141169999999995,100,12.0,100,15.1,100,12.6,100,0.0,100,3.6,100,,-1,,-1,,-1,,-1,,-1,,-1,,-1,,-1,1012.3,100,22.3,100,340,100,26.6,100,5,100,0,1,0.1,1,1012.3,1,1012.3,100,1012.3,100,22.3,100,22.0,100,340,100,344,100,26.6,100,25.9,100
2021-10-16T01:50:00Z,44489,9302001,WEST CHEDABUCTO BAY,0,45.48687,-61.14100000000001,18,2021-10-16T01:50:00.000Z,110,2021-10-16T01:53:27.223Z,45.4869,100,-61.1412,100,12.0,100,15.0,100,12.6,100,0.0,100,3.6,100,,-1,,-1,,-1,,-1,,-1,,-1,,-1,,-1,1012.2,100,19.8,100,343,100,24.8,100,5,100,0,1,-0.1,1,1012.2,1,1012.2,100,1012.2,100,19.8,100,19.4,100,343,100,347,100,24.8,100,24.1,100
2021-10-16T02:00:00Z,44489,9302001,WEST CHEDABUCTO BAY,0,45.48687,-61.14100000000001,18,2021-10-16T02:00:00.000Z,108,2021-10-16T02:04:27.761Z,45.48692,100,-61.141169999999995,100,11.9,100,15.0,100,12.6,100,0.0,100,3.6,100,0.1,100,0.3,100,2.1,100,0.2,100,0.2,100,2.1,100,2.1,100,2.1,100,1012.1,100,19.1,100,348,100,23.8,100,5,100,8,1,-0.2,1,1012.1,1,1012.1,100,1012.1,100,19.1,100,18.7,100,348,100,352,100,23.8,100,23.8,100
2021-10-16T02:10:00Z,44489,9302001,WEST CHEDABUCTO BAY,0,45.48687,-61.14100000000001,18,2021-10-16T02:10:00.000Z,110,2021-10-16T02:16:34.436Z,45.4869,100,-61.14117,100,11.7,100,15.0,100,12.6,100,0.0,100,3.6,100,,-1,,-1,,-1,,-1,,-1,,-1,,-1,,-1,1012.2,100,16.9,100,341,100,21.2,100,5,100,0,1,0.0,1,1012.2,1,1012.2,100,1012.2,100,16.9,100,16.6,100,341,100,345,100,21.2,100,21.2,100
2021-10-16T02:20:00Z,44489,9302001,WEST CHEDABUCTO BAY,0,45.48687,-61.14100000000001,18,2021-10-16T02:20:00.000Z,110,2021-10-16T02:22:32.269Z,45.48692,100,-61.14115,100,11.9,100,15.0,100,12.6,100,0.0,100,3.6,100,,-1,,-1,,-1,,-1,,-1,,-1,,-1,,-1,1012.6,100,19.8,100,347,100,25.6,100,5,100,1,1,0.3,1,1012.6,1,1012.6,100,1012.6,100,19.8,100,19.4,100,347,100,351,100,25.6,100,24.8,100
2021-10-16T02:30:00Z,44489,9302001,WEST CHEDABUCTO BAY,0,45.48687,-61.14100000000001,18,2021-10-16T02:30:00.000Z,110,2021-10-16T02:32:36.838Z,45.48693,100,-61.14118000000001,100,11.8,100,15.0,100,12.6,100,0.0,100,3.6,100,,-1,,-1,,-1,,-1,,-1,,-1,,-1,,-1,1012.7,100,23.0,100,341,100,27.4,100,5,100,2,1,0.4,1,1012.7,1,1012.7,100,1012.7,100,23.0,100,22.3,100,341,100,345,100,27.4,100,27.4,100
2021-10-16T02:40:00Z,44489,9302001,WEST CHEDABUCTO BAY,0,45.48687,-61.14100000000001,18,2021-10-16T02:40:00.000Z,110,2021-10-16T02:48:35.663Z,45.48687,100,-61.141169999999995,100,11.8,100,15.0,100,12.5,100,0.0,100,3.6,100,,-1,,-1,,-1,,-1,,-1,,-1,,-1,,-1,1012.7,100,23.0,100,348,100,29.9,100,5,100,3,1,0.5,1,1012.7,1,1012.7,100,1012.7,100,23.0,100,22.7,100,348,100,352,100,29.9,100,28.8,100
2021-10-16T02:50:00Z,44489,9302001,WEST CHEDABUCTO BAY,0,45.48687,-61.14100000000001,18,2021-10-16T02:50:00.000Z,110,2021-10-16T02:52:42.661Z,45.4869,100,-61.14117,100,12.0,100,15.0,100,12.5,100,0.0,100,3.6,100,,-1,,-1,,-1,,-1,,-1,,-1,,-1,,-1,1012.5,100,23.8,100,357,100,29.5,100,5,100,3,1,0.2,1,1012.5,1,1012.5,100,1012.6,100,23.8,100,23.0,100,357,100,1,100,29.5,100,28.8,100
2021-10-16T03:00:00Z,44489,9302001,WEST CHEDABUCTO BAY,0,45.48687,-61.14100000000001,18,2021-10-16T03:00:00.000Z,108,2021-10-16T03:03:46.265Z,45.48693,100,-61.141169999999995,100,12.0,100,15.0,100,12.5,100,0.0,100,3.6,100,0.1,100,0.3,100,2.1,100,0.2,100,0.2,100,2.1,100,2.1,100,2.0,100,1012.6,100,20.9,100,349,100,24.5,100,5,100,3,1,0.1,1,1012.6,1,1012.6,100,1012.6,100,20.9,100,20.5,100,349,100,353,100,24.5,100,24.5,100
2021-10-16T03:10:00Z,44489,9302001,WEST CHEDABUCTO BAY,0,45.48687,-61.14100000000001,18,2021-10-16T03:10:00.000Z,110,2021-10-16T03:16:55.526Z,45.48692,100,-61.1412,100,12.0,100,15.0,100,12.6,100,0.0,100,3.6,100,,-1,,-1,,-1,,-1,,-1,,-1,,-1,,-1,1012.6,100,22.3,100,344,100,25.9,100,5,100,3,1,0.1,1,1012.6,1,1012.6,100,1012.6,100,22.3,100,21.6,100,344,100,348,100,25.9,100,25.9,100
2021-10-16T03:20:00Z,44489,9302001,WEST CHEDABUCTO BAY,0,45.48687,-61.14100000000001,18,2021-10-16T03:20:00.000Z,110,2021-10-16T03:22:53.987Z,45.48692,100,-61.14118000000001,100,11.8,100,15.0,100,12.6,100,0.0,100,3.6,100,,-1,,-1,,-1,,-1,,-1,,-1,,-1,,-1,1012.8,100,22.3,100,342,100,26.3,100,5,100,3,1,0.3,1,1012.8,1,1012.8,100,1012.8,100,22.3,100,22.0,100,342,100,346,100,26.3,100,25.6,100
2021-10-16T03:30:00Z,44489,9302001,WEST CHEDABUCTO BAY,0,45.48687,-61.14100000000001,18,2021-10-16T03:30:00.000Z,110,2021-10-16T03:32:51.839Z,45.48693,100,-61.14117,100,11.6,100,15.0,100,12.6,100,0.0,100,3.6,100,,-1,,-1,,-1,,-1,,-1,,-1,,-1,,-1,1012.7,100,19.8,100,337,100,24.1,100,5,100,3,1,0.2,1,1012.7,1,1012.7,100,1012.8,100,19.8,100,19.4,100,337,100,341,100,24.1,100,23.4,100
2021-10-16T03:40:00Z,44489,9302001,WEST CHEDABUCTO BAY,0,45.48687,-61.14100000000001,18,2021-10-16T03:40:00.000Z,110,2021-10-16T03:43:51.825Z,45.48695,100,-61.14122,100,11.6,100,15.0,100,12.5,100,0.0,100,3.6,100,,-1,,-1,,-1,,-1,,-1,,-1,,-1,,-1,1012.7,100,18.7,100,336,100,22.7,100,5,100,3,1,0.1,1,1012.7,1,1012.7,100,1012.7,100,18.7,100,18.0,100,336,100,340,100,22.7,100,22.7,100
2021-10-16T03:50:00Z,44489,9302001,WEST CHEDABUCTO BAY,0,45.48687,-61.14100000000001,18,2021-10-16T03:50:00.000Z,110,2021-10-16T03:52:51.774Z,45.48692,100,-61.14118000000001,100,11.7,100,15.0,100,12.5,100,0.0,100,3.6,100,,-1,,-1,,-1,,-1,,-1,,-1,,-1,,-1,1012.9,100,20.5,100,346,100,23.8,100,5,100,3,1,0.4,1,1012.9,1,1012.9,100,1012.9,100,20.5,100,19.8,100,346,100,350,100,23.8,100,23.4,100
2021-10-16T04:00:00Z,44489,9302001,WEST CHEDABUCTO BAY,0,45.48687,-61.14100000000001,18,2021-10-16T04:00:00.000Z,108,2021-10-16T04:02:57.252Z,45.48692,100,-61.1412,100,11.7,100,15.0,100,12.5,100,0.0,100,3.6,100,0.1,100,0.2,100,2.9,100,0.1,100,0.1,100,2.9,100,2.3,100,5.4,100,1012.9,100,19.4,100,350,100,22.0,100,5,100,3,1,0.5,1,1012.9,1,1012.9,100,1012.9,100,19.4,100,18.7,100,350,100,354,100,22.0,100,22.0,100
2021-10-16T04:10:00Z,44489,9302001,WEST CHEDABUCTO BAY,0,45.48687,-61.14100000000001,18,2021-10-16T04:10:00.000Z,110,2021-10-16T04:16:59.422Z,45.48692,100,-61.1412,100,11.8,100,15.0,100,12.6,100,0.0,100,3.6,100,,-1,,-1,,-1,,-1,,-1,,-1,,-1,,-1,1013.0,100,18.7,100,356,100,22.3,100,5,100,3,1,0.6,1,1013.0,1,1013.0,100,1013.0,100,18.7,100,18.4,100,356,100,0,100,22.3,100,22.0,100
2021-10-16T04:20:00Z,44489,9302001,WEST CHEDABUCTO BAY,0,45.48687,-61.14100000000001,18,2021-10-16T04:20:00.000Z,110,2021-10-16T04:23:06.861Z,45.48693,100,-61.1412,100,11.7,100,15.0,100,12.5,100,0.0,100,3.6,100,,-1,,-1,,-1,,-1,,-1,,-1,,-1,,-1,1013.0,100,17.3,100,6,100,20.5,100,5,100,3,1,0.6,1,1013.0,1,1013.0,100,1013.0,100,17.3,100,16.9,100,6,100,10,100,20.5,100,20.2,100
2021-10-16T04:30:00Z,44489,9302001,WEST CHEDABUCTO BAY,0,45.48687,-61.14100000000001,18,2021-10-16T04:30:00.000Z,110,2021-10-16T04:34:10.250Z,45.48692,100,-61.1412,100,11.6,100,15.0,100,12.5,100,0.0,100,3.6,100,,-1,,-1,,-1,,-1,,-1,,-1,,-1,,-1,1012.9,100,18.0,100,26,100,21.2,100,5,100,1,1,0.5,1,1012.9,1,1012.9,100,1012.9,100,18.0,100,17.3,100,26,100,30,100,21.2,100,20.9,100
2021-10-16T04:40:00Z,44489,9302001,WEST CHEDABUCTO BAY,0,45.48687,-61.14100000000001,18,2021-10-16T04:40:00.000Z,110,2021-10-16T04:43:11.096Z,45.48693,100,-61.1412,100,11.5,100,14.9,100,12.5,100,0.0,100,3.6,100,,-1,,-1,,-1,,-1,,-1,,-1,,-1,,-1,1012.8,100,17.6,100,25,100,22.7,100,5,100,1,1,0.4,1,1012.8,1,1012.8,100,1012.8,100,17.6,100,16.9,100,25,100,29,100,22.7,100,22.7,100
2021-10-16T04:50:00Z,44489,9302001,WEST CHEDABUCTO BAY,0,45.48687,-61.14100000000001,18,2021-10-16T04:50:00.000Z,110,2021-10-16T04:54:04.068Z,45.48693,100,-61.14118000000001,100,11.4,100,14.9,100,12.5,100,0.0,100,3.6,100,,-1,,-1,,-1,,-1,,-1,,-1,,-1,,-1,1012.7,100,13.3,100,15,100,15.8,100,5,100,0,1,0.5,1,1012.7,1,1012.7,100,1012.7,100,13.3,100,13.0,100,15,100,19,100,15.8,100,15.5,100
2021-10-16T05:00:00Z,44489,9302001,WEST CHEDABUCTO BAY,0,45.48687,-61.14100000000001,18,2021-10-16T05:00:00.000Z,108,2021-10-16T05:03:20.281Z,45.48692,100,-61.1412,100,11.4,100,14.9,100,12.5,100,0.0,100,3.6,100,0.1,100,0.1,100,3.0,100,0.1,100,0.1,100,3.2,100,2.5,100,4.7,100,1012.8,100,13.0,100,14,100,16.9,100,5,100,0,1,0.7,1,1012.8,1,1012.8,100,1012.8,100,13.0,100,12.6,100,14,100,18,100,16.9,100,16.2,100
2021-10-16T05:10:00Z,44489,9302001,WEST CHEDABUCTO BAY,0,45.48687,-61.14100000000001,18,2021-10-16T05:10:00.000Z,110,2021-10-16T05:16:22.015Z,45.48692,100,-61.1412,100,11.5,100,14.9,100,12.5,100,0.0,100,3.6,100,,-1,,-1,,-1,,-1,,-1,,-1,,-1,,-1,1012.8,100,14.8,100,13,100,18.4,100,5,100,0,1,0.6,1,1012.8,1,1012.8,100,1012.8,100,14.8,100,14.4,100,13,100,17,100,18.4,100,18.4,100
2021-10-16T05:20:00Z,44489,9302001,WEST CHEDABUCTO BAY,0,45.48687,-61.14100000000001,18,2021-10-16T05:20:00.000Z,110,2021-10-16T05:23:20.906Z,45.48692,100,-61.14122,100,11.6,100,14.9,100,12.5,100,0.0,100,3.6,100,,-1,,-1,,-1,,-1,,-1,,-1,,-1,,-1,1012.8,100,15.5,100,7,100,18.7,100,5,100,0,1,0.3,1,1012.8,1,1012.8,100,1012.8,100,15.5,100,15.1,100,7,100,11,100,18.7,100,18.0,100
2021-10-16T05:30:00Z,44489,9302001,WEST CHEDABUCTO BAY,0,45.48687,-61.14100000000001,18,2021-10-16T05:30:00.000Z,110,2021-10-16T05:33:26.789Z,45.4869,100,-61.14118000000001,100,11.4,100,14.9,100,12.5,100,0.0,100,3.6,100,,-1,,-1,,-1,,-1,,-1,,-1,,-1,,-1,1012.9,100,14.8,100,5,100,18.0,100,5,100,1,1,0.2,1,1012.9,1,1012.9,100,1012.9,100,14.8,100,14.4,100,5,100,9,100,18.0,100,18.0,100
2021-10-16T05:40:00Z,44489,9302001,WEST CHEDABUCTO BAY,0,45.48687,-61.14100000000001,18,2021-10-16T05:40:00.000Z,110,2021-10-16T05:43:21.752Z,45.4869,100,-61.14118000000001,100,11.3,100,14.9,100,12.5,100,0.0,100,3.6,100,,-1,,-1,,-1,,-1,,-1,,-1,,-1,,-1,1012.9,100,13.7,100,1,100,16.2,100,5,100,3,1,0.2,1,1012.9,1,1012.9,100,1012.9,100,13.7,100,13.3,100,1,100,5,100,16.2,100,15.8,100
2021-10-16T05:50:00Z,44489,9302001,WEST CHEDABUCTO BAY,0,45.48687,-61.14100000000001,18,2021-10-16T05:50:00.000Z,110,2021-10-16T05:53:27.156Z,45.48692,100,-61.14117,100,11.3,100,14.9,100,12.5,100,0.0,100,3.6,100,,-1,,-1,,-1,,-1,,-1,,-1,,-1,,-1,1013.1,100,13.0,100,0,100,15.5,100,5,100,2,1,0.5,1,1013.1,1,1013.1,100,1013.1,100,13.0,100,12.6,100,0,100,4,100,15.5,100,15.1,100
2021-10-16T06:00:00Z,44489,9302001,WEST CHEDABUCTO BAY,0,45.48687,-61.14100000000001,18,2021-10-16T06:00:00.000Z,108,2021-10-16T06:03:24.209Z,45.48693,100,-61.14118000000001,100,11.2,100,14.9,100,12.5,100,0.0,100,3.6,100,0.1,100,0.1,100,3.0,100,0.1,100,0.1,100,3.1,100,2.6,100,5.3,100,1013.2,100,14.0,100,354,100,16.9,100,5,100,3,1,0.6,1,1013.2,1,1013.2,100,1013.2,100,14.0,100,13.7,100,354,100,358,100,16.9,100,16.6,100
2021-10-16T06:10:00Z,44489,9302001,WEST CHEDABUCTO BAY,0,45.48687,-61.14100000000001,18,2021-10-16T06:10:00.000Z,110,2021-10-16T06:16:25.844Z,45.48693,100,-61.14118000000001,100,11.2,100,14.9,100,12.5,100,0.0,100,3.6,100,,-1,,-1,,-1,,-1,,-1,,-1,,-1,,-1,1013.3,100,14.4,100,343,100,17.3,100,5,100,3,1,0.7,1,1013.3,1,1013.3,100,1013.3,100,14.4,100,14.0,100,343,100,347,100,17.3,100,17.3,100
2021-10-16T06:20:00Z,44489,9302001,WEST CHEDABUCTO BAY,0,45.48687,-61.14100000000001,18,2021-10-16T06:20:00.000Z,110,2021-10-16T06:23:28.981Z,45.48692,100,-61.14118000000001,100,11.1,100,14.9,100,12.5,100,0.0,100,3.6,100,,-1,,-1,,-1,,-1,,-1,,-1,,-1,,-1,1013.4,100,15.5,100,341,100,18.4,100,5,100,3,1,0.7,1,1013.4,1,1013.4,100,1013.4,100,15.5,100,15.1,100,341,100,345,100,18.4,100,18.4,100
2021-10-16T06:30:00Z,44489,9302001,WEST CHEDABUCTO BAY,0,45.48687,-61.14100000000001,18,2021-10-16T06:30:00.000Z,110,2021-10-16T06:34:36.750Z,45.48693,100,-61.14118000000001,100,11.1,100,14.9,100,12.5,100,0.0,100,3.6,100,,-1,,-1,,-1,,-1,,-1,,-1,,-1,,-1,1013.5,100,15.1,100,339,100,16.9,100,5,100,3,1,0.8,1,1013.5,1,1013.5,100,1013.6,100,15.1,100,14.8,100,339,100,343,100,16.9,100,16.9,100
2021-10-16T06:40:00Z,44489,9302001,WEST CHEDABUCTO BAY,0,45.48687,-61.14100000000001,18,2021-10-16T06:40:00.000Z,110,2021-10-16T06:43:41.464Z,45.48693,100,-61.14118000000001,100,11.0,100,14.9,100,12.5,100,0.0,100,3.6,100,,-1,,-1,,-1,,-1,,-1,,-1,,-1,,-1,1013.5,100,13.3,100,345,100,16.2,100,5,100,3,1,0.9,1,1013.5,1,1013.5,100,1013.5,100,13.3,100,13.0,100,345,100,348,100,16.2,100,16.6,100
2021-10-16T06:50:00Z,44489,9302001,WEST CHEDABUCTO BAY,0,45.48687,-61.14100000000001,18,2021-10-16T06:50:00.000Z,110,2021-10-16T06:52:39.748Z,45.48693,100,-61.14118000000001,100,10.9,100,14.9,100,12.5,100,0.0,100,3.6,100,,-1,,-1,,-1,,-1,,-1,,-1,,-1,,-1,1013.3,100,12.2,100,339,100,14.4,100,5,100,3,1,0.5,1,1013.3,1,1013.3,100,1013.4,100,12.2,100,12.2,100,339,100,343,100,14.4,100,14.4,100
2021-10-16T07:00:00Z,44489,9302001,WEST CHEDABUCTO BAY,0,45.48687,-61.14100000000001,18,2021-10-16T07:00:00.000Z,108,2021-10-16T07:02:39.757Z,45.48695,100,-61.141169999999995,100,10.9,100,14.9,100,12.5,100,0.0,100,3.6,100,0.1,100,0.2,100,2.7,100,0.1,100,0.1,100,2.8,100,2.3,100,2.0,100,1013.3,100,10.8,100,341,100,15.1,100,5,100,3,1,0.4,1,1013.3,1,1013.3,100,1013.3,100,10.8,100,10.8,100,341,100,344,100,15.1,100,15.1,100
2021-10-16T07:10:00Z,44489,9302001,WEST CHEDABUCTO BAY,0,45.48687,-61.14100000000001,18,2021-10-16T07:10:00.000Z,110,2021-10-16T07:16:51.038Z,45.48692,100,-61.14115,100,10.8,100,14.9,100,12.5,100,0.0,100,3.6,100,,-1,,-1,,-1,,-1,,-1,,-1,,-1,,-1,1013.2,100,10.4,100,340,100,12.6,100,5,100,3,1,0.2,1,1013.2,1,1013.2,100,1013.2,100,10.4,100,10.4,100,340,100,344,100,12.6,100,12.6,100
2021-10-16T07:20:00Z,44489,9302001,WEST CHEDABUCTO BAY,0,45.48687,-61.14100000000001,18,2021-10-16T07:20:00.000Z,110,2021-10-16T07:22:56.073Z,45.48692,100,-61.141169999999995,100,10.6,100,14.8,100,12.5,100,0.0,100,3.6,100,,-1,,-1,,-1,,-1,,-1,,-1,,-1,,-1,1013.0,100,11.5,100,338,100,14.0,100,5,100,0,1,0.0,1,1013.0,1,1013.0,100,1013.1,100,11.5,100,11.2,100,338,100,342,100,14.0,100,13.7,100
2021-10-16T07:30:00Z,44489,9302001,WEST CHEDABUCTO BAY,0,45.48687,-61.14100000000001,18,2021-10-16T07:30:00.000Z,110,2021-10-16T07:32:56.546Z,45.48692,100,-61.14115,100,10.4,100,14.8,100,12.5,100,0.0,100,3.6,100,,-1,,-1,,-1,,-1,,-1,,-1,,-1,,-1,1013.1,100,12.2,100,336,100,15.1,100,5,100,0,1,0.2,1,1013.1,1,1013.1,100,1013.1,100,12.2,100,12.2,100,336,100,340,100,15.1,100,15.1,100
2021-10-16T07:40:00Z,44489,9302001,WEST CHEDABUCTO BAY,0,45.48687,-61.14100000000001,18,2021-10-16T07:40:00.000Z,110,2021-10-16T07:42:56.684Z,45.48692,100,-61.14115,100,10.4,100,14.8,100,12.5,100,0.0,100,3.6,100,,-1,,-1,,-1,,-1,,-1,,-1,,-1,,-1,1013.0,100,12.2,100,344,100,15.1,100,5,100,0,1,0.3,1,1013.0,1,1013.0,100,1013.1,100,12.2,100,11.9,100,344,100,348,100,15.1,100,15.1,100
2021-10-16T07:50:00Z,44489,9302001,WEST CHEDABUCTO BAY,0,45.48687,-61.14100000000001,18,2021-10-16T07:50:00.000Z,110,2021-10-16T07:52:58.653Z,45.48692,100,-61.14117,100,10.3,100,14.8,100,12.5,100,0.0,100,3.6,100,,-1,,-1,,-1,,-1,,-1,,-1,,-1,,-1,1013.1,100,11.5,100,347,100,13.7,100,5,100,0,1,0.4,1,1013.1,1,1013.1,100,1013.1,100,11.5,100,11.2,100,347,100,351,100,13.7,100,13.7,100
2021-10-16T08:00:00Z,44489,9302001,WEST CHEDABUCTO BAY,0,45.48687,-61.14100000000001,18,2021-10-16T08:00:00.000Z,108,2021-10-16T08:03:07.231Z,45.48692,100,-61.14115,100,10.3,100,14.8,100,12.5,100,0.0,100,3.6,100,0.1,100,0.2,100,2.7,100,0.1,100,0.1,100,2.5,100,2.4,100,2.0,100,1013.0,100,13.7,100,2,100,18.4,100,5,100,0,1,0.3,1,1013.0,1,1013.0,100,1013.0,100,13.7,100,13.3,100,2,100,6,100,18.4,100,18.0,100
2021-10-16T08:10:00Z,44489,9302001,WEST CHEDABUCTO BAY,0,45.48687,-61.14100000000001,18,2021-10-16T08:10:00.000Z,110,2021-10-16T08:16:12.293Z,45.48695,100,-61.14113,100,10.1,100,14.8,100,12.5,100,0.0,100,3.6,100,,-1,,-1,,-1,,-1,,-1,,-1,,-1,,-1,1013.1,100,15.5,100,357,100,18.7,100,5,100,0,1,0.3,1,1013.1,1,1013.1,100,1013.1,100,15.5,100,15.1,100,357,100,1,100,18.7,100,18.7,100
2021-10-16T08:20:00Z,44489,9302001,WEST CHEDABUCTO BAY,0,45.48687,-61.14100000000001,18,2021-10-16T08:20:00.000Z,110,2021-10-16T08:23:10.757Z,45.48693,100,-61.14115,100,10.2,100,14.8,100,12.5,100,0.0,100,3.6,100,,-1,,-1,,-1,,-1,,-1,,-1,,-1,,-1,1013.3,100,14.0,100,2,100,17.6,100,5,100,1,1,0.5,1,1013.3,1,1013.3,100,1013.3,100,14.0,100,13.7,100,2,100,6,100,17.6,100,17.6,100
2021-10-16T08:30:00Z,44489,9302001,WEST CHEDABUCTO BAY,0,45.48687,-61.14100000000001,18,2021-10-16T08:30:00.000Z,110,2021-10-16T08:33:13.197Z,45.48695,100,-61.14115,100,10.2,100,14.8,100,12.5,100,0.0,100,3.6,100,,-1,,-1,,-1,,-1,,-1,,-1,,-1,,-1,1013.3,100,14.8,100,2,100,19.4,100,5,100,1,1,0.4,1,1013.3,1,1013.3,100,1013.3,100,14.8,100,14.4,100,2,100,6,100,19.4,100,19.4,100
2021-10-16T08:40:00Z,44489,9302001,WEST CHEDABUCTO BAY,0,45.48687,-61.14100000000001,18,2021-10-16T08:40:00.000Z,110,2021-10-16T08:43:11.981Z,45.4869,100,-61.1411,100,10.1,100,14.8,100,12.4,100,0.0,100,3.6,100,,-1,,-1,,-1,,-1,,-1,,-1,,-1,,-1,1013.3,100,14.0,100,357,100,17.6,100,5,100,1,1,0.5,1,1013.3,1,1013.3,100,1013.4,100,14.0,100,13.7,100,357,100,1,100,17.6,100,16.9,100
2021-10-16T08:50:00Z,44489,9302001,WEST CHEDABUCTO BAY,0,45.48687,-61.14100000000001,18,2021-10-16T08:50:00.000Z,110,2021-10-16T08:53:15.687Z,45.48693,100,-61.14112,100,10.1,100,14.8,100,12.4,100,0.0,100,3.6,100,,-1,,-1,,-1,,-1,,-1,,-1,,-1,,-1,1013.3,100,13.3,100,8,100,17.3,100,5,100,1,1,0.3,1,1013.3,1,1013.3,100,1013.3,100,13.3,100,13.3,100,8,100,13,100,17.3,100,16.9,100
2021-10-16T09:00:00Z,44489,9302001,WEST CHEDABUCTO BAY,0,45.48687,-61.14100000000001,18,2021-10-16T09:00:00.000Z,108,2021-10-16T09:03:16.624Z,45.48692,100,-61.141130000000004,100,10.3,100,14.8,100,12.4,100,0.0,100,3.6,100,0.1,100,0.2,100,2.6,100,0.1,100,0.1,100,2.6,100,2.3,100,1.9,0,1013.2,100,13.0,100,19,100,15.8,100,5,100,5,1,0.0,1,1013.2,1,1013.2,100,1013.2,100,13.0,100,12.6,100,19,100,23,100,15.8,100,15.8,100
2021-10-16T09:10:00Z,44489,9302001,WEST CHEDABUCTO BAY,0,45.48687,-61.14100000000001,18,2021-10-16T09:10:00.000Z,110,2021-10-16T09:17:16.686Z,45.48692,100,-61.14112,100,10.5,100,14.8,100,12.5,100,0.0,100,3.6,100,,-1,,-1,,-1,,-1,,-1,,-1,,-1,,-1,1013.1,100,12.2,100,18,100,15.1,100,5,100,6,1,-0.2,1,1013.1,1,1013.1,100,1013.1,100,12.2,100,12.2,100,18,100,23,100,15.1,100,15.1,100
2021-10-16T09:20:00Z,44489,9302001,WEST CHEDABUCTO BAY,0,45.48687,-61.14100000000001,18,2021-10-16T09:20:00.000Z,110,2021-10-16T09:23:18.800Z,45.48692,100,-61.1411,100,10.6,100,14.8,100,12.5,100,0.0,100,3.6,100,,-1,,-1,,-1,,-1,,-1,,-1,,-1,,-1,1013.1,100,10.4,100,8,100,13.0,100,5,100,6,1,-0.3,1,1013.1,1,1013.1,100,1013.1,100,10.4,100,10.4,100,8,100,12,100,13.0,100,13.0,100